Flag for U.S.A. Weather past 2 weeks in Tulsa, Oklahoma, U.S.A.

57 °F

Passing clouds.

Feels Like: 57 °F
Forecast: 49 / 75 °F
Wind: 5 mph from East

Location: Tulsa International Airport

Current Time: Oct 10, 2015 at 12:55:12 AM

Latest Report: Oct 9, 2015 at 11:53 PM

Visibility: 10 mi

Pressure: 30.22 "Hg

Humidity: 83%

Dew point: 52 °F

Location of TulsaLocation

Historic Weather in Tulsa — Graph


Tulsa temperature yesterday

Maximum temperature yesterday: 72 °F (at 3:53 PM)
Minimum temperature yesterday: 59 °F (at 9:53 AM)
Average temperature yesterday: 66 °F

Past Weeks' High & Low Weather Summary

High88 °F (Sep 25, 2:53 PM)100% (Sep 29, 5:53 AM)30.26 "Hg (Sep 29, 5:53 AM)
Low46 °F (Oct 3, 6:53 AM)32% (Sep 25, 4:53 PM)29.84 "Hg (Sep 28, 4:53 PM)
Average67 °F71%30.05 "Hg
* Reported Sep 24 10:53 PM — Oct 9 10:53 PM, Tulsa, Weather by CustomWeather, © 2015

Note: Actual official high and low records may vary slightly from our data, if they occured in-between our weather recording intervals... More about our weather records


Tulsa weather history for previous 24 hours

Time TempWeatherWind HumidityBarometerVisibility
10:53 PM
Fri, Oct 9
60 °FPassing clouds.10 mph78%30.23 "Hg10 mi
9:53 PM60 °FPassing clouds.3 mph75%30.22 "Hg10 mi
8:53 PM62 °FPassing clouds.9 mph73%30.21 "Hg10 mi
7:53 PM65 °FPassing clouds.6 mph66%30.20 "Hg10 mi
6:53 PM67 °FPassing clouds.8 mph63%30.18 "Hg10 mi
5:53 PM71 °FPassing clouds.8 mph53%30.18 "Hg10 mi
4:53 PM72 °FPassing clouds.10 mph55%30.18 "Hg10 mi
3:53 PM72 °FPassing clouds.8 mph59%30.17 "Hg10 mi
2:53 PM70 °FScattered clouds.13 mph64%30.19 "Hg10 mi
1:53 PM67 °FPartly sunny.12 mph76%30.22 "Hg10 mi
12:53 PM64 °FBroken clouds.14 mph84%30.24 "Hg10 mi
11:53 AM62 °FCloudy.9 mph90%30.24 "Hg10 mi
11:00 AM61 °FMore clouds than sun.8 mph83%30.26 "Hg10 mi
9:53 AM59 °FLight rain. Mostly cloudy.10 mph93%30.24 "Hg10 mi
8:53 AM62 °FHeavy rain. Fog.13 mph90%30.21 "Hg1 mi
7:53 AM62 °FLight rain. Mostly cloudy.8 mph93%30.17 "Hg10 mi
6:53 AM67 °FOvercast.10 mph76%30.15 "Hg10 mi
5:53 AM68 °FOvercast.10 mph70%30.14 "Hg10 mi
4:53 AM68 °FOvercast.13 mph76%30.12 "Hg10 mi
3:53 AM69 °FPassing clouds.17 mph81%30.11 "Hg10 mi
2:53 AM66 °FMostly cloudy.8 mph90%30.08 "Hg10 mi
1:53 AM68 °FMostly cloudy.3 mph87%30.03 "Hg10 mi
12:53 AM68 °FPassing clouds.No wind87%30.04 "Hg10 mi
Weather by CustomWeather, © 2015

See weather overviewHow to use our weather pages